FW6261 Weather Reports


time (UTC)temp
C
wind
direction
speed
KPH
gust
KPH
rain 1hr
cm
rain 24hr
cm
rain mn
cm
humidity
%
barometer
mb
20260510190522 24 257 9.7 20.9 0.00 0.18 0.00 52 1011.8
20260510190042 24 253 9.7 17.7 0.00 0.18 0.00 53 1011.9
20260510185522 23 291 4.8 22.5 0.00 0.18 0.00 52 1011.9
20260510185023 23 277 9.7 22.5 0.00 0.18 0.00 53 1012.0
20260510184539 23 286 12.9 22.5 0.00 0.18 0.00 52 1012.1
20260510184022 24 251 11.3 22.5 0.00 0.18 0.00 52 1012.1
20260510183522 24 209 11.3 22.5 0.00 0.18 0.00 52 1012.0
20260510183037 24 279 11.3 22.5 0.00 0.18 0.00 54 1012.0
20260510182522 23 279 9.7 17.7 0.00 0.18 0.00 55 1012.0
20260510182022 23 266 6.4 24.1 0.00 0.18 0.00 55 1012.0
20260510181541 23 223 11.3 24.1 0.00 0.18 0.00 55 1011.9
20260510181022 24 223 9.7 20.9 0.00 0.18 0.00 55 1012.0
20260510180522 24 271 12.9 20.9 0.00 0.18 0.00 56 1012.1
20260510180045 24 205 8.0 19.3 0.00 0.18 0.00 57 1011.9
20260510175522 24 234 1.6 17.7 0.00 0.18 0.00 58 1011.9
20260510175022 23 246 4.8 17.7 0.00 0.18 0.00 59 1012.0
20260510174537 23 184 4.8 17.7 0.00 0.18 0.00 58 1012.0
20260510174024 23 292 4.8 12.9 0.00 0.18 0.00 60 1012.0
20260510173522 23 218 6.4 12.9 0.00 0.18 0.00 60 1012.0
20260510173038 23 209 1.6 11.3 0.00 0.18 0.00 62 1011.9
20260510172525 23 205 3.2 11.3 0.00 0.18 0.00 64 1011.9
20260510172021 22 227 3.2 9.7 0.00 0.18 0.00 63 1011.8
20260510171546 23 252 3.2 8.0 0.00 0.18 0.00 63 1011.8
20260510171022 22 239 0.0 14.5 0.00 0.18 0.00 65 1011.9
20260510170522 22 236 6.4 14.5 0.00 0.18 0.00 63 1011.9
20260510170103 22 220 1.6 12.9 0.00 0.18 0.00 65 1011.8
20260510165522 22 243 0.0 8.0 0.00 0.18 0.00 66 1012.0
20260510165024 22 169 1.6 9.7 0.00 0.18 0.00 66 1012.1
20260510164558 22 254 1.6 9.7 0.00 0.18 0.00 67 1012.0
20260510164021 21 0 1.6 11.3 0.00 0.18 0.00 68 1012.2
20260510163522 21 239 1.6 11.3 0.00 0.18 0.00 69 1012.2
20260510163040 21 218 1.6 9.7 0.00 0.18 0.00 70 1012.2
20260510162523 20 241 1.6 6.4 0.00 0.18 0.00 70 1012.2
20260510162022 20 265 1.6 6.4 0.00 0.18 0.00 73 1012.3
20260510161537 20 97 3.2 6.4 0.00 0.18 0.00 72 1012.3
20260510161023 20 88 1.6 6.4 0.00 0.18 0.00 72 1012.2
20260510160523 20 311 1.6 8.0 0.00 0.18 0.00 73 1012.4
20260510160036 20 0 1.6 8.0 0.00 0.18 0.00 73 1012.3
20260510155522 20 306 0.0 6.4 0.00 0.18 0.00 74 1012.4
20260510155022 19 75 1.6 6.4 0.00 0.18 0.00 76 1012.7
20260510154541 18 0 1.6 6.4 0.00 0.18 0.00 76 1012.7
20260510154021 18 268 0.0 8.0 0.00 0.18 0.00 79 1012.8
20260510153526 17 211 3.2 8.0 0.00 0.18 0.00 80 1012.7
20260510153050 17 82 3.2 6.4 0.00 0.18 0.00 81 1012.7
20260510152522 17 88 1.6 6.4 0.00 0.18 0.00 83 1012.9
20260510152022 17 0 0.0 6.4 0.00 0.18 0.00 84 1013.0
20260510151542 16 208 0.0 8.0 0.00 0.18 0.00 86 1013.0
20260510151022 16 0 0.0 8.0 0.00 0.18 0.00 88 1013.0
20260510150522 15 0 0.0 8.0 0.00 0.18 0.00 90 1012.9
20260510150042 15 0 1.6 8.0 0.00 0.18 0.00 90 1012.9
20260510145521 14 0 0.0 6.4 0.00 0.18 0.00 91 1012.9
20260510145021 14 0 1.6 8.0 0.00 0.18 0.00 91 1012.8
20260510144538 14 0 0.0 8.0 0.00 0.18 0.00 91 1012.9
20260510144022 13 75 0.0 6.4 0.00 0.18 0.00 91 1013.0
20260510143519 13 0 1.6 6.4 0.00 0.18 0.00 91 1013.1
20260510143041 13 0 0.0 4.8 0.00 0.18 0.00 91 1013.0
20260510142521 13 0 0.0 4.8 0.00 0.18 0.00 91 1013.0
20260510142021 13 128 1.6 4.8 0.00 0.18 0.00 91 1012.9
20260510141544 13 0 0.0 4.8 0.00 0.18 0.00 92 1012.8
20260510141021 13 0 0.0 8.0 0.00 0.18 0.00 92 1012.7
20260510140523 13 0 0.0 8.0 0.00 0.18 0.00 92 1012.8
20260510140037 13 360 0.0 3.2 0.00 0.18 0.00 92 1012.7
20260510135524 12 0 0.0 4.8 0.00 0.18 0.00 92 1012.7
20260510135022 12 0 0.0 4.8 0.00 0.18 0.00 92 1012.7
20260510134541 12 0 0.0 3.2 0.00 0.18 0.00 92 1012.6
20260510134020 12 0 0.0 3.2 0.00 0.18 0.00 92 1012.7
20260510133521 12 360 0.0 4.8 0.00 0.18 0.00 92 1012.7
20260510133037 12 0 0.0 4.8 0.00 0.18 0.00 92 1012.8
20260510132522 12 0 1.6 4.8 0.00 0.18 0.00 92 1012.9
20260510132021 12 0 1.6 4.8 0.00 0.18 0.00 92 1012.9
20260510131537 12 0 0.0 4.8 0.00 0.18 0.00 92 1013.0
20260510131022 12 0 0.0 4.8 0.00 0.18 0.00 92 1013.0
20260510130521 12 0 0.0 0.0 0.00 0.18 0.00 92 1013.0
20260510130047 12 0 0.0 0.0 0.00 0.18 0.00 92 1013.0
20260510125522 12 0 0.0 1.6 0.00 0.18 0.00 92 1012.7
20260510125025 12 0 0.0 3.2 0.00 0.18 0.00 92 1012.5
20260510124556 12 0 0.0 3.2 0.00 0.18 0.00 92 1012.4
20260510124022 12 0 0.0 3.2 0.00 0.18 0.00 92 1012.5
20260510123521 12 0 0.0 4.8 0.00 0.18 0.00 92 1012.4
20260510123041 11 360 0.0 6.4 0.00 0.18 0.00 92 1012.2
20260510122521 12 360 0.0 6.4 0.00 0.18 0.00 92 1012.2
20260510122021 11 360 1.6 6.4 0.00 0.18 0.00 92 1012.3
20260510121542 11 0 0.0 4.8 0.00 0.18 0.00 92 1011.9
20260510121022 11 0 0.0 4.8 0.00 0.18 0.00 92 1011.9
20260510120522 11 360 0.0 3.2 0.00 0.18 0.00 92 1011.8
20260510120039 11 360 0.0 3.2 0.00 0.18 0.00 92 1011.8
20260510115523 11 0 0.0 1.6 0.00 0.18 0.00 92 1011.8
20260510115021 11 0 0.0 3.2 0.00 0.18 0.00 92 1011.8
20260510114536 11 0 0.0 3.2 0.00 0.18 0.00 92 1011.9
20260510114022 11 0 0.0 3.2 0.00 0.18 0.00 92 1011.8
20260510113521 11 0 0.0 3.2 0.00 0.18 0.00 92 1012.0
20260510113039 11 360 0.0 1.6 0.00 0.18 0.00 92 1011.9
20260510112522 11 0 0.0 3.2 0.00 0.18 0.00 92 1011.9
20260510112022 11 0 0.0 3.2 0.00 0.18 0.00 92 1012.0
20260510111541 10 0 0.0 4.8 0.00 0.18 0.00 92 1011.9
20260510111022 10 0 1.6 4.8 0.00 0.18 0.00 91 1011.9
20260510110522 10 360 1.6 4.8 0.00 0.18 0.00 91 1011.7
20260510110043 10 360 0.0 4.8 0.00 0.18 0.00 91 1011.7
20260510105522 10 0 0.0 3.2 0.00 0.18 0.00 92 1011.4
20260510105022 10 0 0.0 3.2 0.00 0.18 0.00 91 1011.4
20260510104538 10 0 0.0 3.2 0.00 0.18 0.00 92 1011.3
20260510104021 10 360 0.0 3.2 0.00 0.18 0.00 91 1011.2
20260510103523 10 0 0.0 0.0 0.00 0.18 0.00 91 1011.3
20260510103037 10 0 0.0 0.0 0.00 0.18 0.00 91 1011.2
20260510102521 10 0 0.0 0.0 0.00 0.18 0.00 91 1011.3
20260510102022 10 0 0.0 0.0 0.00 0.18 0.00 91 1011.3
20260510101539 10 0 0.0 0.0 0.00 0.18 0.00 91 1011.2
20260510101021 10 0 0.0 0.0 0.00 0.18 0.00 91 1011.2
20260510100525 10 0 0.0 0.0 0.00 0.18 0.00 91 1011.2
20260510100043 10 0 0.0 0.0 0.00 0.18 0.00 91 1011.0
20260510095522 10 0 0.0 0.0 0.00 0.18 0.00 91 1011.1
20260510095021 10 0 0.0 0.0 0.00 0.18 0.00 91 1011.0
20260510094541 10 0 0.0 0.0 0.00 0.18 0.00 91 1011.0
20260510094022 10 0 0.0 0.0 0.00 0.18 0.00 91 1011.1
20260510093522 10 0 0.0 0.0 0.00 0.18 0.00 91 1011.1
20260510093040 10 0 0.0 0.0 0.00 0.18 0.00 91 1011.2
20260510092522 10 0 0.0 1.6 0.00 0.18 0.00 91 1011.2
20260510092022 10 0 0.0 1.6 0.00 0.18 0.00 91 1011.3
20260510091539 10 0 0.0 1.6 0.00 0.18 0.00 91 1011.2
20260510091021 10 0 0.0 1.6 0.00 0.18 0.00 91 1011.3
20260510090522 10 0 0.0 3.2 0.00 0.18 0.00 91 1011.3
20260510090040 10 0 0.0 6.4 0.00 0.18 0.00 91 1011.4
20260510085521 10 360 1.6 8.0 0.00 0.18 0.00 91 1011.3
20260510085021 10 360 1.6 8.0 0.00 0.18 0.00 91 1011.7
20260510084537 10 360 3.2 8.0 0.00 0.18 0.00 91 1011.6
20260510084021 10 0 0.0 6.4 0.00 0.18 0.00 91 1011.2
20260510083522 10 360 1.6 4.8 0.00 0.18 0.00 91 1011.7
20260510083053 10 360 1.6 8.0 0.00 0.18 0.00 90 1011.5
20260510082521 10 360 0.0 8.0 0.00 0.18 0.00 91 1011.3
20260510082022 10 360 3.2 8.0 0.00 0.18 0.00 91 1011.3
20260510081542 10 360 0.0 1.6 0.00 0.18 0.00 90 1010.9
20260510081021 10 0 0.0 0.0 0.00 0.18 0.00 90 1010.8
20260510080522 10 0 0.0 0.0 0.00 0.18 0.00 90 1010.7
20260510080038 11 0 0.0 0.0 0.00 0.18 0.00 90 1010.7
20260510075521 11 0 0.0 3.2 0.00 0.18 0.00 90 1010.6
20260510075022 11 0 0.0 3.2 0.00 0.18 0.00 90 1010.7
20260510074537 11 0 0.0 3.2 0.00 0.18 0.00 90 1010.6
20260510074021 11 0 0.0 3.2 0.00 0.18 0.00 90 1010.5
20260510073521 11 0 0.0 3.2 0.00 0.18 0.00 90 1010.5
20260510073037 11 0 1.6 4.8 0.00 0.18 0.00 90 1010.4
20260510072522 11 0 1.6 8.0 0.00 0.18 0.00 90 1010.5
20260510072026 11 360 0.0 8.0 0.00 0.18 0.00 90 1010.3
20260510071539 11 360 1.6 8.0 0.00 0.18 0.00 90 1010.4
20260510071021 11 360 3.2 8.0 0.00 0.18 0.00 90 1010.4
20260510070521 11 360 0.0 1.6 0.00 0.18 0.00 90 1010.3
20260510070045 11 0 0.0 1.6 0.00 0.18 0.00 90 1010.4
20260510065522 11 0 0.0 3.2 0.00 0.18 0.00 90 1010.5
20260510065026 11 0 0.0 3.2 0.00 0.18 0.00 90 1010.6
20260510064541 11 0 0.0 3.2 0.00 0.18 0.00 90 1010.5
20260510064019 11 360 0.0 3.2 0.00 0.18 0.00 90 1010.4
20260510063522 11 0 0.0 0.0 0.00 0.18 0.00 90 1010.4
20260510063037 11 0 0.0 0.0 0.00 0.18 0.00 90 1010.3
20260510062521 10 0 0.0 0.0 0.00 0.18 0.00 90 1010.2
20260510062021 10 0 0.0 0.0 0.00 0.18 0.00 90 1010.2
20260510061537 10 0 0.0 0.0 0.00 0.18 0.00 89 1010.1
20260510061022 10 0 0.0 0.0 0.00 0.18 0.00 89 1010.2
20260510060522 10 0 0.0 0.0 0.00 0.18 0.00 89 1010.2
20260510060037 10 0 0.0 0.0 0.00 0.18 0.00 89 1010.1
20260510055521 10 0 0.0 0.0 0.00 0.18 0.00 89 1010.2
20260510055021 10 0 0.0 0.0 0.00 0.18 0.00 89 1010.2
20260510054536 10 0 0.0 0.0 0.00 0.18 0.00 89 1010.3
20260510054023 10 0 0.0 0.0 0.00 0.18 0.00 89 1010.3
20260510053521 10 0 0.0 0.0 0.00 0.18 0.00 89 1010.3
20260510053043 10 0 0.0 0.0 0.00 0.18 0.00 89 1010.3
20260510052522 10 0 0.0 0.0 0.00 0.18 0.00 89 1010.3
20260510052022 10 0 0.0 0.0 0.00 0.18 0.00 89 1010.3
20260510051540 10 0 0.0 0.0 0.00 0.18 0.00 89 1010.4
20260510051022 10 0 0.0 0.0 0.00 0.18 0.00 89 1010.3
20260510050521 10 0 0.0 0.0 0.00 0.18 0.00 88 1010.4
20260510050038 10 0 0.0 0.0 0.00 0.18 0.00 88 1010.6
20260510045522 10 0 0.0 0.0 0.00 0.18 0.00 88 1010.5
20260510045022 10 0 0.0 0.0 0.00 0.18 0.00 88 1010.5
20260510044539 10 0 0.0 0.0 0.00 0.18 0.00 88 1010.4
20260510044021 10 0 0.0 0.0 0.00 0.18 0.00 88 1010.6
20260510043521 10 0 0.0 0.0 0.00 0.18 0.00 88 1010.6
20260510043037 10 0 0.0 1.6 0.00 0.18 0.00 88 1010.6
20260510042521 10 0 0.0 1.6 0.00 0.18 0.00 88 1010.6
20260510042024 10 0 0.0 1.6 0.00 0.18 0.00 88 1010.5
20260510041537 10 0 0.0 0.0 0.00 0.18 0.00 88 1010.7
20260510041021 10 0 0.0 0.0 0.00 0.18 0.00 87 1010.6
20260510040521 10 0 0.0 0.0 0.00 0.18 0.00 87 1010.7
20260510040043 10 0 0.0 0.0 0.00 0.18 0.00 87 1010.7
20260510035521 10 0 0.0 0.0 0.00 0.18 0.18 87 1010.6
20260510035022 10 0 0.0 0.0 0.00 0.18 0.18 87 1010.6
20260510034540 10 0 0.0 0.0 0.00 0.18 0.18 87 1010.5
20260510034022 10 0 0.0 0.0 0.00 0.18 0.18 87 1010.3
20260510033520 11 0 0.0 0.0 0.00 0.18 0.18 87 1010.3
20260510033044 11 0 0.0 0.0 0.00 0.18 0.18 87 1010.2
20260510032524 11 0 0.0 0.0 0.00 0.18 0.18 87 1010.3
20260510032022 11 0 0.0 0.0 0.00 0.18 0.18 87 1010.3
20260510031548 11 0 0.0 0.0 0.00 0.18 0.18 87 1010.2
20260510031022 11 0 0.0 0.0 0.00 0.18 0.18 87 1010.2
20260510030521 11 0 0.0 0.0 0.00 0.18 0.18 87 1010.2
20260510030037 11 0 0.0 0.0 0.00 0.18 0.18 87 1010.2
20260510025522 11 0 0.0 0.0 0.00 0.18 0.18 87 1010.1
20260510025021 11 0 0.0 0.0 0.00 0.18 0.18 87 1010.0
20260510024537 11 0 0.0 0.0 0.00 0.18 0.18 87 1010.1
20260510024021 11 0 0.0 0.0 0.00 0.18 0.18 86 1010.1
20260510023524 11 0 0.0 0.0 0.00 0.18 0.18 87 1010.2
20260510023040 11 0 0.0 0.0 0.00 0.18 0.18 86 1010.1
20260510022523 11 0 0.0 0.0 0.00 0.18 0.18 86 1010.2
20260510022022 11 0 0.0 0.0 0.00 0.18 0.18 86 1010.2
20260510021537 12 0 0.0 0.0 0.00 0.18 0.18 87 1010.3
20260510021020 12 0 0.0 0.0 0.00 0.18 0.18 86 1010.2
20260510020521 12 0 0.0 0.0 0.00 0.18 0.18 86 1010.2
20260510020038 12 0 0.0 0.0 0.00 0.18 0.18 86 1010.2
20260510015523 12 0 0.0 0.0 0.00 0.18 0.18 86 1010.1
20260510015021 12 0 0.0 0.0 0.00 0.18 0.18 86 1010.1
20260510014540 12 0 0.0 0.0 0.00 0.18 0.18 86 1010.1
20260510014021 12 0 0.0 0.0 0.00 0.18 0.18 86 1010.2
20260510013521 12 0 0.0 0.0 0.00 0.18 0.18 86 1010.3
20260510013039 12 0 0.0 0.0 0.00 0.18 0.18 86 1010.3
20260510012521 12 0 0.0 0.0 0.00 0.18 0.18 86 1010.2
20260510012021 12 0 0.0 0.0 0.00 0.18 0.18 86 1010.2
20260510011543 12 0 0.0 0.0 0.00 0.18 0.18 86 1010.1
20260510011021 12 0 0.0 0.0 0.00 0.18 0.18 86 1010.0
20260510010522 12 0 0.0 0.0 0.00 0.18 0.18 86 1010.0
20260510010041 12 0 0.0 0.0 0.00 0.18 0.18 86 1010.0
20260510005522 13 0 0.0 0.0 0.00 0.18 0.18 86 1009.9
20260510005025 13 0 0.0 0.0 0.00 0.18 0.18 86 1009.8
20260510004541 13 0 0.0 0.0 0.00 0.18 0.18 86 1009.8
20260510004021 13 0 0.0 0.0 0.00 0.18 0.18 86 1009.7
20260510003521 13 0 0.0 0.0 0.00 0.18 0.18 86 1009.6
20260510003045 13 0 0.0 0.0 0.00 0.18 0.18 86 1009.6
20260510002521 13 0 0.0 0.0 0.00 0.18 0.18 86 1009.6
20260510002021 13 0 0.0 0.0 0.00 0.18 0.18 86 1009.6
20260510001537 13 0 0.0 0.0 0.00 0.18 0.18 86 1009.5
20260510001021 13 0 0.0 0.0 0.00 0.18 0.18 86 1009.6
20260510000522 13 0 0.0 0.0 0.00 0.18 0.18 86 1009.5
20260510000039 13 0 0.0 0.0 0.00 0.18 0.18 86 1009.6
20260509235521 13 0 0.0 0.0 0.00 0.18 0.18 86 1009.6
20260509235021 13 0 0.0 3.2 0.00 0.18 0.18 86 1009.6
20260509234545 13 0 0.0 3.2 0.00 0.18 0.18 86 1009.6
20260509234022 13 0 0.0 3.2 0.00 0.18 0.18 86 1009.6
20260509233520 13 0 0.0 1.6 0.00 0.18 0.18 86 1009.4
20260509233041 13 0 0.0 4.8 0.00 0.18 0.18 86 1009.6
20260509232521 13 0 0.0 4.8 0.00 0.18 0.18 86 1009.5
20260509232025 13 0 0.0 6.4 0.00 0.18 0.18 86 1009.4
20260509231537 13 0 0.0 9.7 0.00 0.18 0.18 86 1009.5
20260509231021 13 109 0.0 9.7 0.00 0.18 0.18 86 1009.3
20260509230521 13 0 1.6 9.7 0.00 0.18 0.18 86 1009.4
20260509230046 13 0 3.2 9.7 0.00 0.18 0.18 87 1009.4
20260509225521 13 0 1.6 9.7 0.00 0.18 0.18 87 1009.6
20260509225020 13 67 1.6 4.8 0.00 0.18 0.18 87 1009.6
20260509224546 13 90 0.0 4.8 0.00 0.18 0.18 87 1009.6
20260509224021 13 360 0.0 4.8 0.00 0.18 0.18 87 1009.6
20260509223522 13 360 0.0 8.0 0.00 0.18 0.18 87 1009.6
20260509223046 13 360 0.0 8.0 0.00 0.18 0.18 87 1009.6
20260509222521 13 0 1.6 8.0 0.00 0.18 0.18 87 1009.5
20260509222021 13 360 3.2 8.0 0.03 0.18 0.18 87 1009.5
20260509221537 13 0 0.0 4.8 0.05 0.18 0.18 87 1009.7
20260509221021 13 0 0.0 4.8 0.08 0.18 0.18 87 1009.7
20260509220521 13 0 1.6 6.4 0.15 0.18 0.18 87 1009.8
20260509220043 13 360 1.6 6.4 0.18 0.18 0.18 86 1009.8
20260509215522 13 360 3.2 6.4 0.18 0.18 0.18 86 1009.9
20260509215021 13 360 0.0 6.4 0.18 0.18 0.18 86 1010.0
20260509214542 13 360 0.0 6.4 0.18 0.18 0.18 86 1010.1
20260509214024 13 360 0.0 6.4 0.18 0.18 0.18 86 1010.1
20260509213521 13 360 3.2 6.4 0.18 0.18 0.18 85 1009.9
20260509213041 13 360 1.6 6.4 0.18 0.18 0.18 85 1009.9
20260509212521 13 0 0.0 4.8 0.18 0.18 0.18 84 1009.9
20260509212023 13 0 0.0 4.8 0.15 0.15 0.15 84 1010.0
20260509211538 13 360 0.0 3.2 0.13 0.13 0.13 84 1009.9
20260509211021 13 0 0.0 3.2 0.10 0.10 0.10 84 1009.9
20260509210521 13 0 0.0 3.2 0.00 0.00 0.00 84 1010.0
20260509210039 13 0 0.0 4.8 0.00 0.00 0.00 83 1009.8
20260509205521 14 0 0.0 4.8 0.00 0.00 0.00 83 1009.9
20260509205021 14 360 1.6 12.9 0.00 0.00 0.00 83 1009.6
20260509204537 14 360 0.0 12.9 0.00 0.00 0.00 83 1009.7
20260509204021 14 360 4.8 12.9 0.00 0.00 0.00 83 1009.7
20260509203518 14 360 3.2 8.0 0.00 0.00 0.00 83 1009.8
20260509203051 14 360 1.6 8.0 0.00 0.00 0.00 83 1009.7
20260509202521 14 360 0.0 9.7 0.00 0.00 0.00 83 1009.7
20260509202020 14 0 1.6 9.7 0.00 0.00 0.00 83 1009.7
20260509201541 14 360 4.8 9.7 0.00 0.00 0.00 83 1009.7
20260509201026 14 360 3.2 8.0 0.00 0.00 0.00 83 1009.9
20260509200520 14 360 3.2 12.9 0.00 0.00 0.00 83 1009.8
20260509200040 14 360 3.2 12.9 0.00 0.00 0.00 83 1009.9
20260509195521 14 0 3.2 9.7 0.00 0.00 0.00 83 1010.0
20260509195020 14 0 3.2 16.1 0.00 0.00 0.00 82 1010.1
20260509194538 14 360 4.8 16.1 0.00 0.00 0.00 82 1010.1
20260509194022 14 360 3.2 8.0 0.00 0.00 0.00 82 1010.2
20260509193521 14 360 1.6 9.7 0.00 0.00 0.00 81 1010.3
20260509193038 14 360 3.2 12.9 0.00 0.00 0.00 80 1010.4
20260509192520 14 360 4.8 17.7 0.00 0.00 0.00 80 1010.5
20260509192021 14 360 9.7 19.3 0.00 0.00 0.00 79 1010.5
20260509191537 15 360 8.0 19.3 0.00 0.00 0.00 78 1010.6
20260509191020 15 360 6.4 19.3 0.00 0.00 0.00 78 1010.5